User: anonymous   Login
Location: Newark
(25.0000°N, 73.5000°E)
Time: 18:40:43
(UTC+00:00)
Language:

Courier 1B Rocket - Orbit

View from above orbital plane
View from above orbital plane
View from above satellite
View from above satellite

Ground track
Ground track

The orbit data is extracted from the following two-line orbital elements,

1    59U 60013B   21209.94448571  .00000091  00000-0  61757-5 0  9991
2    59  28.2481 290.1420 0189232  97.9501 264.2564 13.52986513  2201
Epoch (UTC): 28 July 2021 22:40:03
Eccentricity: 0.0189232
inclination: 28.2481°
perigee height: 920 km
apogee height: 1202 km
right ascension of ascending node: 290.1420°
argument of perigee: 97.9501°
revolutions per day: 13.52986513
mean anomaly at epoch: 264.2564°
orbit number at epoch: 220

The dashed part of the orbit path shows where the satellite is in the earth's shadow,  

DLR